Zurück zum Katalog

STARLINK-37858

AktivKommunikationSSO
NORAD 69555·PAYLOAD·🇺🇸 United States

Gestartet Jun 15, 2026 von Vandenberg Space Force Base

Loading…

Nächste Überflüge (nächste 24 Stunden)

TLE

AktuellSource: CelesTrak SupGP

Epoche: Sep 14, 2026, 16:00 UTC

1 69555C 26135K   26257.66715278 -.00053285  00000+0 -16541-2 0  2571
2 69555  97.2836 285.4268 0001382  99.7454 330.5865 15.33466494    10

Verfolge STARLINK-37858 in Echtzeit mit AllMySat

Download on the App Store